Погода в Кардоникской

Россия / Карачаево-Черкесская Республика     43°51′45″N   41°42′59″E
темп.,
°C
ветер,
м/с
пор.,
м/с
влажн.,
%
обл.,
%
осадки,
мм/ч
давл.,
гПа
погр.,
м
18 апреля, вс
вс1800:00+4вюв1196100 0.0 102120
03:00+5ю1190100 0.0 101914
06:00+6юз1191100 0.0 101813
09:00+10с1179100 0.1 1016124
12:00+17зсз474886 0.3 10131589
15:00+18зюз46448 0.7 10131647
18:00+14з2367100 0.9 1015147
21:00+9ю2378100 1.2 101755
19 апреля, пн
пн1900:00+10ю2275100 0.1 101659
03:00+10ю3477100 0.1 101698
06:00+10ююв237897 0.1 101671
09:00+13с227086 0.2 1016562
12:00+18сз3549100 0.0 10131451
15:00+18сз245072 0.2 10121034
18:00+14ссз2371100 0.8 101375
21:00+12ю2178100 1.9 101440
20 апреля, вт
вт2000:00+10ююв2279100 0.0 101344
03:00+10ю3576100 0.0 101196
06:00+11ююв3474100 0.0 100863
09:00+20юв41543100 0.0 10042056
12:00+19ю6144692 0.7 10061672
15:00+18ююв595094 2.1 10061055
18:00+13юв2471100 1.6 1007199
21:00+9ссв2495100 1.6 1011227
21 апреля, ср
ср2100:00+7сз2391100 0.2 1012279
03:00+6с119827 1.8 101419
06:00+7сз119272 0.2 101586
09:00+7ссв2295100 1.3 1016365
12:00+7с3395100 0.9 1017473
15:00+5с2398100 1.9 1020306
18:00+5с1197100 0.6 1021264
21:00+5с1197100 0.9 1022183
22 апреля, чт
чт2200:00+5с1298100 0.1 1022161
03:00+5ссв1198100 0.1 1022177
06:00+5с1198100 0.0 1022137
09:00+7ссв118289 0.1 1021452
12:00+10с226998 0.1 10191090
15:00+10с337292 0.6 1019956
18:00+8ссз2487100 0.9 1020473
21:00+6ссз1297100 1.3 1022224